Wind_Speed
28 29 29 29 30 29 29 28 28 27 28 28 28 27 25 24 23 22 20 19 19 19 18 18 18 18 18 19 20 19 18 17 16 16 16 16 15 14 14 13 13 14 14
32 33 33 34 34 34 33 33 33 32 31 31 31 31 30 29 27 26 25 23 22 22 21 21 21 20 20 19 20 21 21 20 19 18 18 18 18 17 17 16 16 15 15
37 37 38 37 38 37 37 37 36 36 36 36 36 35 35 33 32 30 29 27 26 24 24 24 23 23 22 21 21 22 22 23 22 21 21 21 20 20 20 19 18 18 17
40 41 41 41 41 41 40 40 40 40 39 39 39 39 38 36 35 34 32 31 29 28 26 26 25 25 24 24 23 23 23 24 25 25 24 23 23 23 23 22 21 20 19
43 44 44 43 44 44 44 43 42 42 42 43 42 41 41 39 38 36 35 34 33 32 30 28 27 26 26 26 25 25 25 25 26 27 27 26 26 25 25 25 24 23 22
45 46 46 46 45 45 44 45 44 44 44 43 42 41 42 41 40 38 37 36 36 35 33 31 29 28 28 28 28 27 27 27 27 28 29 29 28 28 27 27 26 26 24
48 48 48 47 47 46 45 45 44 45 44 43 43 42 41 41 40 39 38 37 38 37 35 34 32 30 30 30 30 30 30 29 29 29 29 30 30 30 29 29 28 28 27
50 51 50 49 48 48 46 45 45 46 44 44 43 41 40 40 40 39 38 38 38 37 37 36 34 32 31 29 30 31 31 31 30 30 30 30 31 31 32 32 31 30 29
52 51 51 49 48 48 47 46 46 46 45 44 43 41 40 39 40 39 39 39 37 36 36 36 34 31 30 29 28 29 30 31 31 31 31 31 31 31 32 33 33 33 32
51 52 51 50 49 48 46 45 45 44 44 43 42 40 40 40 41 39 39 40 37 36 35 34 32 30 28 27 27 26 28 30 31 32 32 33 33 33 32 33 34 35 35
52 52 51 51 50 48 46 44 44 43 43 41 40 39 39 42 43 41 38 38 36 35 34 33 31 28 26 26 26 25 26 28 30 32 33 34 35 35 35 34 35 35 35
52 52 52 51 49 47 46 45 44 43 42 40 38 38 40 42 41 39 36 34 33 33 33 32 30 28 26 25 25 25 26 28 30 32 34 36 37 37 37 37 37 36 37
53 52 51 50 49 48 47 46 45 41 39 37 35 37 38 37 36 34 32 31 31 31 31 30 29 28 27 26 26 26 27 29 30 32 34 36 37 38 39 40 39 38 38
52 51 51 51 49 47 46 45 43 40 38 37 36 36 35 33 32 31 30 30 30 30 30 29 28 28 28 28 27 27 28 29 31 33 34 35 37 38 40 41 41 39 38
51 50 50 48 46 45 43 41 39 38 37 36 36 34 33 31 30 30 30 30 30 29 29 29 29 29 30 29 29 30 29 30 31 32 34 35 37 38 39 40 41 40 39
49 48 46 44 43 42 40 38 37 36 34 35 35 33 32 30 29 29 29 29 29 29 30 30 30 30 31 31 31 32 32 32 32 33 33 34 35 37 38 40 41 42 41
43 42 42 40 39 37 36 36 34 33 33 33 33 32 31 30 28 28 29 29 30 30 31 31 31 31 32 33 33 34 34 34 33 34 34 34 35 36 37 38 40 42 42
38 38 38 38 37 35 34 34 33 31 32 32 32 30 29 29 28 28 29 30 30 31 32 33 33 34 34 35 36 36 36 36 36 36 36 35 35 35 37 38 39 40 41
32 31 30 30 31 31 31 30 30 30 30 30 29 29 28 27 27 28 29 30 30 31 32 33 34 35 35 36 36 37 38 38 38 37 37 36 35 35 35 36 38 39 39
24 24 24 25 26 26 26 26 27 28 28 28 28 28 27 27 27 27 28 29 30 31 32 33 34 35 36 37 38 38 38 39 39 38 37 37 36 35 35 35 35 37 38
19 17 18 20 21 22 23 24 23 24 24 25 26 25 24 24 25 26 27 28 29 30 31 32 34 35 36 37 38 38 38 39 39 38 37 37 36 35 35 34 34 34 35
13 13 13 15 16 17 18 19 20 20 20 21 20 20 20 21 22 23 25 26 27 29 30 31 33 34 35 36 36 36 37 37 37 37 36 36 36 35 34 33 32 32 32
10 8 8 9 11 12 13 14 15 15 15 16 17 17 18 19 20 21 22 23 24 25 27 28 30 31 32 33 34 34 35 35 35 35 34 34 35 34 33 32 31 30 29
7 6 6 7 8 9 9 9 10 11 12 13 13 14 15 15 16 17 18 19 20 22 24 26 27 29 30 31 32 33 33 34 34 33 32 31 31 32 32 31 31 29 28
7 7 7 7 7 8 8 9 9 9 9 10 10 11 12 12 13 14 15 17 19 21 23 26 28 30 31 32 33 33 33 32 32 32 31 31 29 29 29 29 29 28 26
8 8 7 7 7 7 7 6 7 7 7 8 9 9 9 10 11 12 15 17 19 21 23 25 27 29 30 30 31 32 32 31 30 30 30 29 29 28 27 27 26 27 28
Wind_Direction
294 296 295 295 294 292 289 287 285 282 279 276 274 274 277 280 284 288 290 292 295 296 295 295 293 289 283 278 275 274 273 273 273 274 275 275 277 279 281 280 278 276 275
294 295 295 295 295 293 290 288 285 282 279 277 274 272 274 277 279 283 285 286 288 290 291 291 290 288 285 280 276 273 271 270 270 270 271 272 273 274 276 278 278 278 277
292 293 293 294 294 293 290 289 288 285 280 276 275 273 272 274 277 278 281 283 285 285 287 289 288 285 283 281 276 273 270 268 268 268 269 270 270 271 272 273 275 277 276
290 290 291 292 292 292 291 289 289 289 285 280 276 273 270 271 274 274 277 281 283 285 285 285 285 284 282 279 277 273 270 268 267 267 267 268 269 269 270 270 271 273 275
286 287 288 289 289 290 291 289 288 290 289 287 281 276 272 270 271 273 274 277 280 284 285 284 282 280 279 276 274 273 270 268 266 266 266 266 267 268 268 268 268 269 271
286 286 286 287 288 289 289 290 290 291 289 287 284 279 274 271 271 273 274 276 278 281 283 284 282 279 278 276 273 271 269 267 265 264 264 265 266 266 266 266 266 266 267
284 284 285 286 286 287 288 289 291 292 290 287 284 279 274 271 270 271 271 274 277 281 283 283 282 281 278 276 274 271 268 267 266 264 263 263 264 265 264 264 264 264 264
284 284 283 284 286 286 287 288 289 290 290 287 285 279 272 270 269 271 272 273 276 279 282 283 284 282 279 276 273 271 269 266 264 263 263 263 264 264 264 263 262 262 261
283 284 283 282 284 286 286 287 289 288 288 287 282 277 271 267 267 269 272 274 276 277 280 283 284 282 280 277 273 271 270 268 265 264 263 263 264 265 265 264 261 260 259
282 283 283 284 284 286 287 286 287 287 286 284 278 272 267 265 265 266 269 273 275 276 278 280 281 280 279 278 275 273 273 271 268 266 264 263 263 265 266 265 262 260 258
280 280 280 282 283 284 284 284 284 284 283 281 275 268 265 263 263 264 265 268 272 275 277 278 278 277 276 276 276 276 274 271 269 268 266 264 264 264 265 266 265 262 260
280 280 279 280 280 281 281 282 283 281 280 276 270 263 261 260 261 263 264 266 270 273 275 275 275 274 274 274 275 274 275 273 270 269 268 267 266 265 266 266 266 264 262
280 279 279 279 278 278 278 278 279 278 276 271 264 259 258 259 259 261 264 267 269 270 271 272 272 273 274 275 275 275 274 273 273 272 272 270 269 268 267 267 265 264 263
280 279 278 277 276 274 274 274 274 273 271 266 262 258 256 256 258 262 266 269 269 268 268 269 271 273 275 276 278 278 278 277 276 277 275 274 272 271 270 266 264 264 263
281 279 276 275 272 270 269 270 269 267 265 261 259 256 254 256 259 262 266 268 268 268 268 268 270 273 275 277 279 280 282 282 281 280 279 278 275 274 272 270 265 263 263
281 278 275 271 268 265 265 266 264 260 258 259 258 255 256 257 260 262 265 266 267 268 268 269 271 273 275 276 278 280 283 285 284 284 284 281 279 276 274 271 266 263 262
281 278 272 268 264 263 262 261 258 255 256 257 255 254 255 258 259 261 264 266 268 269 270 271 273 274 275 277 278 280 282 283 284 285 285 285 283 278 275 272 268 263 260
281 277 269 265 260 256 255 254 252 254 254 254 256 256 257 259 261 263 265 267 269 271 272 273 274 275 277 278 279 279 281 282 283 284 284 284 284 282 278 274 269 263 258
283 276 266 262 257 250 247 244 246 248 249 250 254 257 259 261 264 267 268 269 271 272 273 274 275 277 278 279 280 280 280 281 281 282 283 283 283 283 282 277 270 263 259
284 275 261 257 252 247 241 240 242 243 245 249 255 259 262 264 267 269 271 273 274 275 276 277 277 278 279 279 280 280 280 280 279 280 280 281 281 281 281 279 273 264 258
286 274 257 253 247 240 234 234 237 240 245 251 257 262 265 268 270 271 273 275 276 278 279 280 280 281 281 281 281 280 280 279 278 278 278 278 278 278 278 279 277 268 259
286 273 258 249 244 240 237 237 241 247 253 258 260 262 264 267 270 273 276 278 280 282 283 284 285 285 285 284 283 282 281 280 278 277 276 275 274 275 275 275 277 272 260
283 272 260 254 249 244 247 248 248 252 256 258 261 262 265 269 272 276 279 282 286 288 289 290 290 290 289 288 286 284 283 281 280 278 275 274 273 272 271 270 272 271 265
292 283 273 267 259 254 250 250 249 249 252 257 260 264 268 273 277 282 286 289 292 294 296 296 295 294 293 291 289 287 284 282 280 279 276 275 273 271 270 269 271 270 266
280 278 273 266 260 256 250 248 247 249 255 260 266 271 276 281 285 289 294 298 301 302 302 301 300 298 296 294 291 289 286 283 280 277 274 273 271 271 269 269 270 270 267
268 268 267 264 262 257 249 249 251 256 262 267 272 277 283 289 295 301 304 307 308 308 307 305 303 301 299 296 293 290 286 282 279 276 273 271 270 269 269 268 267 266 265
Height
5901 5899 5898 5897 5896 5895 5894 5893 5892 5891 5891 5890 5889 5889 5889 5888 5887 5887 5886 5885 5884 5883 5882 5881 5880 5879 5879 5879 5879 5879 5879 5879 5879 5879 5879 5879 5880 5880 5879 5879 5879 5879 5879
5896 5895 5893 5892 5891 5889 5888 5887 5887 5886 5885 5884 5883 5883 5882 5882 5882 5882 5881 5881 5880 5879 5878 5877 5876 5875 5874 5874 5874 5874 5875 5875 5875 5875 5875 5876 5876 5876 5876 5876 5876 5876 5876
5889 5888 5887 5886 5885 5883 5882 5881 5880 5879 5878 5877 5876 5876 5875 5875 5876 5875 5875 5875 5875 5874 5873 5872 5871 5870 5869 5869 5869 5869 5869 5870 5870 5871 5871 5871 5872 5872 5873 5873 5873 5873 5873
5882 5881 5880 5878 5877 5876 5874 5873 5872 5871 5870 5869 5868 5867 5868 5868 5868 5868 5868 5868 5868 5868 5868 5867 5866 5865 5864 5864 5863 5863 5863 5864 5864 5865 5866 5866 5867 5867 5868 5868 5869 5869 5869
5874 5873 5871 5870 5869 5868 5866 5865 5864 5863 5861 5859 5858 5858 5859 5859 5860 5860 5861 5861 5861 5860 5860 5860 5860 5859 5858 5857 5857 5857 5857 5857 5858 5859 5860 5860 5861 5862 5862 5863 5863 5864 5864
5865 5864 5863 5861 5860 5859 5857 5856 5855 5853 5851 5850 5848 5848 5849 5850 5851 5852 5852 5853 5853 5853 5853 5852 5852 5852 5851 5850 5850 5850 5850 5850 5850 5851 5852 5854 5854 5855 5856 5857 5857 5858 5859
5855 5854 5853 5852 5850 5849 5848 5846 5845 5844 5842 5840 5839 5839 5840 5840 5842 5843 5844 5844 5844 5844 5844 5844 5844 5844 5843 5843 5842 5842 5842 5843 5843 5844 5845 5846 5847 5848 5849 5850 5851 5852 5852
5844 5843 5842 5841 5840 5839 5838 5836 5835 5834 5832 5830 5829 5829 5830 5832 5832 5833 5835 5836 5836 5836 5836 5835 5835 5835 5835 5835 5835 5834 5834 5835 5835 5836 5837 5839 5840 5841 5842 5843 5844 5845 5846
5833 5832 5831 5829 5829 5828 5828 5827 5825 5823 5822 5821 5819 5819 5820 5821 5823 5825 5825 5826 5828 5828 5827 5827 5827 5827 5826 5826 5826 5826 5826 5826 5827 5828 5829 5831 5832 5833 5834 5835 5836 5837 5838
5823 5821 5820 5819 5819 5818 5817 5817 5815 5813 5812 5811 5810 5809 5810 5812 5814 5816 5817 5817 5819 5819 5819 5819 5818 5818 5818 5817 5817 5818 5818 5818 5819 5820 5821 5823 5824 5825 5826 5827 5828 5829 5830
5812 5810 5809 5809 5808 5807 5807 5806 5805 5804 5802 5801 5800 5800 5801 5802 5804 5806 5809 5809 5810 5810 5811 5810 5810 5810 5810 5810 5810 5811 5811 5810 5811 5812 5813 5814 5815 5817 5818 5819 5820 5820 5821
5801 5799 5798 5797 5797 5797 5796 5796 5795 5793 5792 5791 5791 5791 5792 5793 5794 5796 5799 5801 5801 5802 5802 5802 5802 5802 5802 5802 5802 5803 5803 5803 5803 5804 5804 5805 5806 5808 5809 5810 5811 5812 5813
5788 5786 5785 5785 5785 5785 5785 5785 5784 5783 5782 5782 5782 5782 5783 5784 5785 5787 5789 5791 5793 5794 5794 5794 5794 5794 5794 5794 5795 5795 5795 5795 5794 5795 5796 5796 5797 5798 5799 5801 5801 5802 5803
5774 5774 5773 5772 5772 5773 5773 5773 5773 5773 5773 5774 5774 5774 5775 5775 5777 5778 5781 5783 5784 5785 5785 5786 5786 5786 5786 5786 5787 5787 5787 5786 5786 5786 5787 5787 5787 5788 5789 5790 5791 5792 5793
5760 5759 5759 5759 5759 5760 5761 5762 5762 5763 5764 5765 5765 5766 5767 5767 5769 5770 5772 5774 5776 5777 5777 5778 5778 5778 5778 5778 5778 5778 5778 5778 5777 5778 5778 5778 5778 5778 5778 5779 5781 5782 5783
5747 5746 5745 5746 5746 5748 5749 5751 5752 5753 5754 5756 5757 5758 5759 5760 5761 5763 5765 5766 5768 5769 5769 5770 5770 5770 5770 5770 5770 5770 5769 5769 5769 5769 5768 5768 5768 5768 5768 5769 5770 5771 5772
5734 5733 5733 5734 5735 5736 5738 5741 5743 5744 5746 5747 5748 5749 5751 5752 5753 5755 5757 5759 5760 5761 5761 5762 5762 5762 5762 5761 5761 5761 5761 5760 5760 5759 5759 5758 5757 5757 5757 5758 5758 5759 5760
5723 5721 5721 5722 5724 5727 5730 5732 5734 5737 5738 5739 5741 5742 5743 5745 5747 5748 5750 5751 5752 5753 5753 5753 5753 5753 5753 5752 5752 5752 5751 5751 5751 5750 5749 5749 5748 5747 5746 5746 5747 5748 5749
5713 5711 5711 5713 5715 5718 5721 5724 5726 5728 5730 5732 5734 5735 5737 5738 5740 5741 5742 5743 5744 5744 5745 5745 5745 5744 5743 5743 5742 5742 5742 5741 5741 5740 5740 5739 5738 5737 5736 5735 5735 5736 5738
5705 5704 5704 5706 5708 5710 5713 5716 5718 5721 5723 5725 5727 5729 5730 5732 5733 5734 5735 5736 5736 5736 5736 5736 5735 5735 5734 5733 5733 5732 5732 5731 5730 5730 5729 5729 5728 5728 5727 5726 5725 5725 5727
5700 5699 5699 5701 5703 5705 5707 5709 5712 5714 5716 5718 5720 5722 5724 5725 5726 5727 5728 5728 5728 5727 5727 5727 5726 5725 5724 5723 5723 5722 5721 5721 5720 5719 5719 5718 5718 5718 5717 5716 5715 5715 5716
5697 5696 5697 5698 5700 5701 5703 5705 5707 5709 5711 5713 5715 5716 5718 5719 5720 5720 5720 5720 5720 5719 5718 5718 5717 5715 5714 5713 5712 5711 5710 5710 5709 5709 5708 5708 5708 5707 5707 5707 5706 5706 5706
5695 5695 5695 5696 5697 5698 5700 5701 5703 5705 5707 5708 5710 5711 5712 5713 5713 5713 5713 5713 5712 5711 5710 5709 5708 5706 5705 5704 5702 5701 5700 5699 5698 5697 5697 5697 5697 5697 5697 5697 5697 5697 5697
5693 5693 5693 5694 5695 5696 5697 5698 5700 5701 5703 5704 5705 5706 5707 5707 5707 5707 5707 5707 5706 5704 5703 5702 5700 5698 5696 5694 5693 5691 5690 5689 5687 5687 5687 5687 5687 5687 5687 5688 5688 5688 5688
5692 5692 5692 5692 5693 5694 5694 5695 5697 5698 5699 5700 5701 5702 5702 5702 5702 5702 5702 5701 5700 5698 5697 5695 5692 5690 5688 5685 5683 5681 5680 5679 5678 5677 5677 5677 5677 5677 5678 5678 5679 5680 5680
5690 5690 5690 5691 5691 5692 5692 5693 5694 5695 5696 5697 5697 5698 5698 5698 5698 5698 5697 5696 5694 5693 5690 5688 5685 5682 5679 5677 5674 5672 5670 5669 5668 5668 5667 5667 5667 5668 5669 5669 5670 5671 5672